Content
SEND FEEDBACK

Daily
Averages
Monthly
Summary
United States of America

STATEN ISLAND, NEW YORK


Home > North America > United States > New York
Elevation: 46 meters     Latitude: 40 35N     Longitude: 074 09W

WEATHER
 
SELECT A DAY
Number of Records: 189,786;   Date Range: 1/1/95 - 8/30/14
 
SHARE

PRINT THIS DATA

[ ← Previous Day ]
WEATHER ALMANAC - 4 APRIL, 2013
[ Next Day → ]
[ °F ]   °C
Weather ElementAverageHighLow
Temperature5.8 °C11.7 °C (2:51 pm)0 °C (3:51 am)
Dewpoint-6.9 °C-1.7 °C (6:51 pm)-10.6 °C (1:51 am)
Humidity40.8 %52 % (5:51 am)27 % (2:51 pm)
Barometer1024.7 hPa1029.1 hPa (6:51 am)1019 hPa (11:51 pm)
Wind Speed13.2 km/h22.2 km/h (8:51 pm)
Wind Gust29.6 km/h (1:51 am)
Weather ElementAverage
Visibility16.1 km
Wind DirectionSSW (216.5 °)

Weather ElementTotal
Precipitation---
Heating Degree Days12.5 (Base 18.3)
Averaged from 23 records on 4 April, 2013
WEATHER CONDITIONS BREAKOUT
WIND DIRECTION BREAKOUT
WEATHER BY HOUR - 4 APRIL, 2013
[ °F ]   °C
Local TimeTemperatureDewpointHumidityBarometerVisibilityWind DirectionWind SpeedGust SpeedPrecipitationEventsConditions
1:51 AM1.7 °C-10.6 °C40 %1025.7 hPa16.1 kmNNW (330°)20.4 km/h29.6 km/hClear
2:51 AM1.1 °C-10 °C44 %1026.1 hPa16.1 kmWNW (300°)9.3 km/hClear
3:51 AM0 °C-9.4 °C50 %1027.1 hPa16.1 kmSW (230°)9.3 km/hClear
4:51 AM1 °C-9 °C48 %1027.4 hPa16.1 kmWest (260°)9.3 km/hClear
5:51 AM0 °C-8.9 °C52 %1027.8 hPa16.1 kmWest (280°)14.8 km/hClear
6:51 AM0 °C-8.9 °C52 %1029.1 hPa16.1 kmWNW (290°)14.8 km/hPartly Cloudy
7:51 AM2 °C-9 °C44 %1029.1 hPa16.1 kmWNW (290°)13 km/hPartly Cloudy
8:51 AM3.3 °C-8.9 °C41 %1029.1 hPa16.1 kmWNW (290°)11.1 km/hScattered Clouds
9:51 AM3.9 °C-8.9 °C39 %1028.8 hPa16.1 kmCalmMostly Cloudy
10:51 AM5.6 °C-7.8 °C38 %1028.1 hPa16.1 kmWNW (290°)7.4 km/hMostly Cloudy
11:51 AM6.7 °C-8.3 °C34 %1027.1 hPa16.1 kmSSW (210°)9.3 km/hMostly Cloudy
12:51 PM9.4 °C-7.2 °C31 %1026.1 hPa16.1 kmWSW (240°)13 km/hMostly Cloudy
1:51 PM10 °C-7.8 °C28 %1024.7 hPa16.1 kmSW (220°)5.6 km/hMostly Cloudy
2:51 PM11.7 °C-6.7 °C27 %1023.4 hPa16.1 kmSSW (210°)11.1 km/hMostly Cloudy
3:51 PM9.4 °C-3.9 °C39 %1022.4 hPa16.1 kmSSE (150°)18.5 km/hMostly Cloudy
4:51 PM9 °C-3 °C43 %1022 hPa16.1 kmSE (130°)16.7 km/hMostly Cloudy
5:51 PM9.4 °C-2.8 °C43 %1021.3 hPa16.1 kmSSE (160°)13 km/hOvercast
6:51 PM9.4 °C-1.7 °C46 %1021.3 hPa16.1 kmSSE (150°)13 km/hOvercast
7:51 PM8.9 °C-2.8 °C44 %1020.7 hPa16.1 kmSouth (170°)18.5 km/hOvercast
8:51 PM8.9 °C-5.6 °C36 %1020.3 hPa16.1 kmSSW (210°)22.2 km/hOvercast
9:51 PM8.3 °C-8.3 °C30 %1020.3 hPa16.1 kmSouth (190°)18.5 km/hOvercast
10:51 PM6.7 °C-4.4 °C45 %1020 hPa16.1 kmSouth (190°)18.5 km/hOvercast
11:51 PM6.1 °C-5 °C45 %1019 hPa16.1 kmSouth (190°)14.8 km/hOvercast
Hourly data recorded from KEWR, located 0 kilometers away from Staten Island, New York







STORIES FROM OUR PARTNERS